Regional Weather Roundup
Issued by NWS

Home | Current Version | Previous Version | Graphics & Text | Print | Product List | Glossary On
Versions: 1 2 3 4 5 6 7 8 9 10 11 12 13 14 15 16 17 18 19 20 21 22 23 24 25 26 27 28 29 30 31 32 33 34 35 36 37 38 39 40 41 42 43 44 45 46 47 48 49 50
000
ASUS44 KMEG 192310
RWRTN
TENNESSEE HOURLY STATE WEATHER ROUNDUP
NATIONAL WEATHER SERVICE MEMPHIS TN
500 PM CST MON FEB 19 2018

TNZ002-004-019-021-049-052-054-088>092-200000-
WEST TENNESSEE

CITY           SKY/WX    TMP DP  RH WIND       PRES   REMARKS
MEMPHIS INTL   MOCLDY    75  55  49 S12       30.02S
NWS MEMPHIS      N/A     75 N/A N/A MISG        N/A
JACKSON        FAIR      73  58  59 S13       30.06R
DYERSBURG      FAIR      74  57  55 S8G20     30.03R
SOMERVILLE     CLEAR     73  57  56 S8        30.04R
COVINGTON      CLEAR     72  57  60 S13G20    30.03R
UNION CITY     CLEAR     73  59  60 S15       30.01S
BOLIVAR        PTCLDY    72  61  68 SE7       30.06R
PARIS          PTCLDY    70  59  68 S14G21    30.04S
HUNTINGDON     PTCLDY    72  61  68 S14       30.05R
LEXINGTON      CLEAR     72  61  68 S9        30.09R
SELMER         CLEAR     72  61  68 S6        30.08R
SAVANNAH       CLEAR     72  61  68 S7        30.09R
$$

TNZ008-025-027-028-033-062-065-066-200000-
NORTH MIDDLE TENNESSEE

CITY           SKY/WX    TMP DP  RH WIND       PRES   REMARKS
NASHVILLE      MOCLDY    73  55  53 S13       30.13R
PORTLAND       CLOUDY    70  57  64 S13       30.12R
CLARKSVILLE    FAIR      71  54  54 S14       30.07R
SMYRNA         MOCLDY    72  56  57 S6        30.14R
COOKEVILLE     PTCLDY    68  57  68 S10G18    30.17R
GALLATIN       CLOUDY    72  57  60 S6        30.15S
CROSSVILLE     MOCLDY    61  55  81 S7        30.24R
$$

TNZ061-075-076-078-094-096-097-200000-
SOUTH MIDDLE TENNESSEE

CITY           SKY/WX    TMP DP  RH WIND       PRES   REMARKS
FAYETTEVILLE   CLOUDY    73  55  53 S9        30.15S
TULLAHOMA      MOCLDY    72  54  53 S9        30.15S
WINCHESTER     MOCLDY    73  52  46 S12       30.17S
MCMINNVILLE    MOCLDY    70  59  68 S6        30.16R
COLUMBIA       PTCLDY    70  61  73 S10       30.10S
SHELBYVILLE    CLOUDY    72  55  56 S10G18    30.14S
$$

TNZ017-018-042-046-047-200000-
NORTHEAST TENNESSEE

CITY           SKY/WX    TMP DP  RH WIND       PRES   REMARKS
TRI CITIES     MOCLDY    65  55  70 SW6       30.24S
ELIZABETHTON   FAIR      70  54  56 VRB5      30.25R
$$

TNZ012-013-036-069-073-074-200000-
CENTRAL EAST TENNESSEE

CITY           SKY/WX    TMP DP  RH WIND       PRES   REMARKS
KNOXVILLE      CLOUDY    69  53  56 SW13G22   30.21R
OAK RIDGE      CLOUDY    69  60  73 W5        30.22R
DOWNTOWN KNOXV CLOUDY    72  54  53 SW9       30.22R
GATLINBURG     PTCLDY    72  52  49 SW8       30.23R
JACKSBORO      MOCLDY    66  57  72 CALM      30.26R
$$

TNZ083-085-099-200000-
SOUTHEAST TENNESSEE

CITY           SKY/WX    TMP DP  RH WIND       PRES   REMARKS
CHATTANOOGA    MOCLDY    67  58  72 S8        30.22R
$$

SKY/WX REPORTED AS FAIR MEANS FEW OR NO CLOUDS BELOW
12 THOUSAND FEET.




USA.gov is the U.S. government's official web portal to all federal, state and local government web resources and services.